Regional Weather Roundup
Issued by NWS

Home | Current Version | Previous Version | Text Only | Print | Product List | Glossary On
Versions: 1 2 3 4 5 6 7 8 9 10 11 12 13 14 15 16 17 18 19 20 21 22 23 24 25 26 27 28 29 30 31 32 33 34 35 36 37 38 39 40 41 42 43 44 45 46 47 48 49 50
000
ASUS43 KLSX 210707
RWRMO

WEATHER SUMMARY FOR MISSOURI
NATIONAL WEATHER SERVICE SPRINGFIELD MO
200 AM CDT THU SEP 21 2017

NOTE: "FAIR" INDICATES FEW OR NO CLOUDS BELOW 12,000 FEET WITH NO
       SIGNIFICANT WEATHER AND/OR OBSTRUCTIONS TO VISIBILITY.
       CURRENT SKY AND/OR WEATHER CONDITIONS ARE NOT AVAILABLE FOR
       CHILLICOTHE AND FARMINGTON.

MOZ001>031-035>038-043-044-053-054-210800-
...NORTHERN AND WESTERN MISSOURI...

CITY           SKY/WX    TMP DP  RH WIND       PRES   REMARKS
KANSAS CTY INT CLOUDY    79  73  82 S12       29.88R
KANSAS C DTWN  MOCLDY    83  73  72 S12       29.87R
LEE`S SUMMIT   PTCLDY    79  72  79 S12       29.90R
ST JOSEPH      PTCLDY    73  72  96 N5        29.87R
CHILLICOTHE      N/A     78  74  87 S6        29.89R
KIRKSVILLE     CLEAR     71  69  93 S6        29.91R

$$
MOZ066>068-077>081-088>096-101>105-210800-
...SOUTHWEST MISSOURI...

CITY           SKY/WX    TMP DP  RH WIND       PRES   REMARKS
SPRINGFIELD    CLEAR     75  70  84 S8        29.97R
JOPLIN         CLEAR     78  72  81 S10       29.93S

$$
MOZ032>034-039>042-045>050-055>058-069>072-210800-
...CENTRAL MISSOURI...

CITY           SKY/WX    TMP DP  RH WIND       PRES   REMARKS
COLUMBIA       CLEAR     76  71  85 S9        29.95R
JEFFERSON CITY CLEAR     77  70  79 SE3       29.94R
ROLLA          CLEAR     75  70  84 S9        29.99R
SEDALIA        CLEAR     76  72  87 S7        29.94R
WHITEMAN AFB   PTCLDY    76  76 100 S10       29.91R
WARRENSBURG    CLEAR     77  70  78 S6        29.90R
OSAGE BEACH    CLEAR     74  70  87 SE5       29.97R

$$
MOZ051-052-059>065-210800-
...EAST CENTRAL MISSOURI...

CITY           SKY/WX    TMP DP  RH WIND       PRES   REMARKS
ST LOUIS INTL  PTCLDY    81  71  71 S6        29.96R
SPIRIT OF STL  CLEAR     76  71  85 CALM      29.95R
ST CHARLES     CLEAR     72  70  93 E3        29.95R

$$
MOZ072>076-082>087-097>100-106>115-210800-
...SOUTH CENTRAL AND SOUTHEAST MISSOURI...

CITY           SKY/WX    TMP DP  RH WIND       PRES   REMARKS
CAPE GIRARDEAU CLEAR     77  71  82 S8        29.97S
FARMINGTON     CLEAR     74  69  85 S3        30.00R
POPLAR BLUFF   CLEAR     69  69 100 CALM      29.98R
WEST PLAINS    CLEAR     76  70  82 S6        30.01R

$$


USA.gov is the U.S. government's official web portal to all federal, state and local government web resources and services.